EW5627 Weather Reports


Display with metric or nautical units.
time (UTC)temp
F
wind
direction
speed
MPH
gust
MPH
rain 1hr
in
rain 24hr
in
rain mn
in
humidity
%
barometer
mb
20260905154528 75 223 2.0 5.0 0.00 0.00 0.00 67 1009.5
20260905153029 74 360 2.0 5.0 0.00 0.00 0.00 71 1009.6
20260905151518 73 11 1.0 7.0 0.00 0.00 0.00 70 1009.6
20260905150020 71 192 2.0 5.0 0.00 0.00 0.00 73 1009.7
20260905144514 70 118 0.0 3.0 0.00 0.00 0.00 74 1009.5
20260905143009 71 342 1.0 8.0 0.00 0.00 0.00 78 1009.5
20260905141505 69 46 0.0 3.0 0.00 0.00 0.00 78 1009.4
20260905140004 69 42 1.0 4.0 0.00 0.00 0.00 79 1009.4
20260905134504 68 65 0.0 3.0 0.00 0.00 0.00 82 1009.4
20260905133002 67 237 0.0 3.0 0.00 0.00 0.00 84 1009.4
20260905131502 67 237 1.0 3.0 0.00 0.00 0.00 85 1009.5
20260905130000 66 236 0.0 0.0 0.00 0.00 0.00 85 1009.6
20260905124600 66 236 0.0 2.0 0.00 0.00 0.00 84 1009.8
20260905123112 65 235 0.0 0.0 0.00 0.00 0.00 84 1009.7
20260905121559 65 235 0.0 0.0 0.00 0.00 0.00 84 1009.8
20260905120056 65 235 0.0 2.0 0.00 0.00 0.00 84 1009.8
20260905114553 64 235 0.0 0.0 0.00 0.00 0.00 84 1009.7
20260905113052 64 235 0.0 0.0 0.00 0.00 0.00 85 1009.4
20260905111557 64 235 0.0 0.0 0.00 0.00 0.00 85 1009.2
20260905110050 63 235 0.0 0.0 0.00 0.00 0.00 86 1008.9
20260905104548 63 235 0.0 0.0 0.00 0.00 0.00 86 1008.9
20260905103056 63 235 0.0 0.0 0.00 0.00 0.00 86 1008.9
20260905101547 63 235 0.0 0.0 0.00 0.00 0.00 86 1008.9
20260905100055 64 235 0.0 0.0 0.00 0.00 0.00 85 1008.6
20260905094543 64 235 0.0 0.0 0.00 0.00 0.00 84 1008.6
20260905093042 64 235 0.0 0.0 0.00 0.00 0.00 84 1008.5
20260905091546 64 235 0.0 0.0 0.00 0.00 0.00 83 1008.5
20260905090040 65 235 0.0 0.0 0.00 0.00 0.00 83 1008.5
20260905084538 65 235 0.0 0.0 0.00 0.00 0.00 83 1008.5
20260905083036 65 235 0.0 0.0 0.00 0.00 0.00 83 1008.5
20260905081635 66 235 0.0 0.0 0.00 0.00 0.00 83 1008.5
20260905080057 66 235 0.0 0.0 0.00 0.00 0.00 82 1008.5
20260905074533 66 235 0.0 0.0 0.00 0.02 0.00 82 1008.6
20260905073032 67 235 0.0 0.0 0.00 0.02 0.00 82 1008.4
20260905071531 67 229 0.0 0.0 0.00 0.02 0.00 82 1008.5
20260905070037 67 212 0.0 0.0 0.00 0.02 0.00 81 1008.5
20260905064626 67 212 0.0 0.0 0.00 0.03 0.00 81 1008.6
20260905063023 68 212 0.0 2.0 0.00 0.03 0.00 81 1008.8
20260905061525 68 212 0.0 0.0 0.00 0.03 0.00 80 1008.9
20260905060037 68 212 0.0 0.0 0.00 0.03 0.00 80 1009.0
20260905054517 68 212 0.0 0.0 0.00 0.20 0.00 80 1009.2
20260905053014 69 212 0.0 0.0 0.00 0.20 0.00 81 1009.4
20260905051519 69 212 0.0 0.0 0.00 0.20 0.00 80 1009.4
20260905050017 69 212 0.0 0.0 0.00 0.20 0.00 82 1009.5
20260905044515 69 212 0.0 0.0 0.00 0.23 0.00 80 1009.6
20260905043008 69 212 0.0 0.0 0.00 0.23 0.00 79 1009.7
20260905041506 70 212 0.0 0.0 0.00 0.23 0.00 80 1009.6
20260905040005 70 212 0.0 0.0 0.00 0.23 0.00 79 1009.7
20260905034502 70 212 0.0 0.0 0.00 0.23 0.23 78 1009.8
20260905033003 70 212 0.0 0.0 0.00 0.23 0.23 76 1009.8
20260905031502 70 212 0.0 0.0 0.00 0.23 0.23 77 1009.8
20260905030003 70 212 0.0 0.0 0.00 0.23 0.23 77 1009.7
20260905024600 70 212 0.0 0.0 0.00 0.23 0.23 77 1009.6
20260905023100 70 212 0.0 0.0 0.00 0.23 0.23 77 1009.6
20260905021559 70 212 0.0 0.0 0.00 0.23 0.23 77 1009.6
20260905020059 70 212 0.0 0.0 0.00 0.23 0.23 78 1009.7
20260905014558 71 212 0.0 0.0 0.00 0.23 0.23 78 1009.6
20260905013057 71 212 0.0 0.0 0.00 0.23 0.23 77 1009.6
20260905011616 72 212 0.0 0.0 0.00 0.23 0.23 77 1009.7
20260905010056 72 212 0.0 0.0 0.00 0.23 0.23 77 1009.7
20260905004555 72 212 0.0 0.0 0.00 0.23 0.23 76 1009.7
20260905003058 72 212 0.0 0.0 0.00 0.23 0.23 76 1009.6
20260905001607 73 212 0.0 0.0 0.00 0.23 0.23 74 1009.5
20260905000055 73 212 0.0 0.0 0.00 0.23 0.23 74 1009.3
20260904234555 74 212 0.0 0.0 0.00 0.23 0.23 73 1009.3
20260904233105 75 212 0.0 0.0 0.00 0.23 0.23 72 1009.1
20260904231554 75 212 0.0 0.0 0.00 0.23 0.23 72 1009.1
20260904230052 76 212 0.0 0.0 0.00 0.23 0.23 70 1009.1
20260904224551 77 212 0.0 0.0 0.00 0.23 0.23 69 1009.2
20260904223054 77 212 0.0 0.0 0.00 0.23 0.23 68 1009.3
20260904221554 78 212 0.0 3.0 0.00 0.23 0.23 66 1009.1
20260904220104 79 212 0.0 0.0 0.00 0.23 0.23 65 1009.1
20260904214550 81 212 0.0 0.0 0.00 0.23 0.23 61 1009.0
20260904213050 82 190 0.0 0.0 0.00 0.23 0.23 59 1009.0
20260904211547 83 190 0.0 0.0 0.00 0.23 0.23 59 1009.0
20260904210046 83 186 0.0 0.0 0.00 0.23 0.23 58 1009.1
20260904204545 84 191 1.0 3.0 0.00 0.23 0.23 57 1009.2
20260904203044 83 189 0.0 2.0 0.00 0.23 0.23 63 1009.3
20260904201550 83 101 0.0 4.0 0.00 0.23 0.23 64 1009.4
20260904200044 83 240 0.0 2.0 0.00 0.23 0.23 63 1009.5
20260904194540 82 360 0.0 0.0 0.00 0.23 0.23 65 1009.3
20260904193039 82 360 0.0 2.0 0.00 0.23 0.23 64 1009.6
20260904191541 82 107 0.0 2.0 0.00 0.23 0.23 60 1009.8
20260904190037 82 31 1.0 3.0 0.00 0.23 0.23 65 1010.0
20260904184542 82 348 0.0 5.0 0.00 0.23 0.23 67 1010.0
20260904183036 83 285 0.0 3.0 0.00 0.23 0.23 61 1010.0
20260904181538 82 75 0.0 1.0 0.00 0.23 0.23 68 1010.1
20260904180035 80 70 2.0 4.0 0.00 0.23 0.23 65 1009.9
20260904174530 80 37 0.0 0.0 0.00 0.23 0.23 67 1010.0
20260904173030 81 76 0.0 1.0 0.00 0.23 0.23 65 1009.9
20260904171539 79 71 0.0 2.0 0.00 0.23 0.23 69 1010.0
20260904170027 81 36 0.0 4.0 0.00 0.23 0.23 69 1010.0
20260904164526 80 360 0.0 4.0 0.00 0.23 0.23 71 1010.2
20260904163025 79 84 1.0 4.0 0.00 0.23 0.23 76 1010.0
20260904161524 79 86 0.0 3.0 0.00 0.23 0.23 72 1010.1
20260904160028 81 74 0.0 4.0 0.00 0.23 0.23 73 1010.0